Home > Weather > Iqaluit > Past weeks

Flag for Canada Weather for the Past 2 Weeks in Iqaluit, Nunavut, Canada

Now
43 °F

Partly sunny.


Feels Like: 39 °F
Forecast: N/A
Wind: 7 mph from Northeast

Location: Iqaluit

Current Time: Apr 28, 2016 at 6:27:40 PM

Latest Report: Apr 28, 2016 at 5:00 PM


Visibility: 30 mi

Pressure: 30.20 "Hg

Humidity: 66%

Dew Point: 32 °F

Location of IqaluitLocation

Historic Weather in Iqaluit — Graph

°F

Iqaluit Temperature Yesterday

Maximum temperature yesterday: 43 °F (at 12:00 PM)
Minimum temperature yesterday: 37 °F (at 6:00 AM)
Average temperature yesterday: 40 °F

High & Low Weather Summary for the Past Weeks

 TemperatureHumidityPressure
High45 °F (Apr 28, 2:00 PM)100% (Apr 20, 1:00 PM)30.50 "Hg (Apr 20, 1:00 PM)
Low-6 °F (Apr 19, 12:00 AM)52% (Apr 22, 3:00 PM)29.00 "Hg (Apr 21, 3:00 AM)
Average16 °F76%30.01 "Hg
* Reported Apr 13 5:00 PM — Apr 28 5:00 PM, Iqaluit, Weather by CustomWeather, © 2016

Note: Actual official high and low records may vary slightly from our data, if they occured in-between our weather recording intervals... More about our weather records

Advertising

Iqaluit Weather History for the Previous 24 Hours

Scroll right to see more
 ConditionsComfort  
Time TempWeatherWind HumidityBarometerVisibility
5:00 PM
Thu, Apr 28
43 °FPartly sunny.7 mph66%30.20 "Hg30 mi
4:00 PM43 °FPartly sunny.13 mph66%30.20 "Hg30 mi
3:00 PM45 °FPartly sunny.13 mph61%30.20 "Hg30 mi
2:00 PM45 °FPartly sunny.8 mph61%30.22 "Hg30 mi
1:00 PM43 °FPartly sunny.10 mph61%30.22 "Hg30 mi
12:00 PM43 °FPartly sunny.12 mph61%30.22 "Hg30 mi
11:00 AM43 °FBroken clouds.13 mph61%30.23 "Hg30 mi
10:00 AM41 °FBroken clouds.3 mph66%30.23 "Hg30 mi
9:00 AM41 °FPartly sunny.3 mph61%30.23 "Hg30 mi
8:00 AM39 °FBroken clouds.8 mph65%30.22 "Hg30 mi
7:00 AM39 °FBroken clouds.9 mph65%30.22 "Hg30 mi
6:00 AM32 °FBroken clouds.No wind87%30.21 "Hg30 mi
5:00 AM32 °FPassing clouds.No wind80%30.21 "Hg30 mi
4:00 AM37 °FPassing clouds.3 mph70%30.20 "Hg30 mi
3:00 AM37 °FPassing clouds.7 mph70%30.19 "Hg15 mi
2:00 AM34 °FPassing clouds.8 mph81%30.20 "Hg15 mi
1:00 AM34 °FPassing clouds.5 mph81%30.19 "Hg15 mi
12:00 AM36 °FPassing clouds.6 mph75%30.18 "Hg15 mi
11:00 PM
Wed, Apr 27
37 °FPassing clouds.6 mph70%30.18 "Hg15 mi
10:00 PM37 °FPassing clouds.7 mph75%30.17 "Hg30 mi
9:00 PM39 °FPartly sunny.10 mph70%30.17 "Hg30 mi
8:00 PM39 °FScattered clouds.7 mph70%30.15 "Hg30 mi
7:00 PM39 °FScattered clouds.2 mph70%30.15 "Hg30 mi
6:00 PM43 °FPartly sunny.7 mph66%30.14 "Hg30 mi
Weather by CustomWeather, © 2016

See weather overviewHow to use our weather pages